#timestamp,LO_Frequency,Hit 
1503025215.8,286047002.1,N
1503025235.6,286047002.0,N
1503025255.4,286047002.1,N
1503025275.3,286047002.4,N
1503025295.1,286047002.0,N
1503025296.0,286047002.0,N
1503025315.8,286047001.6,N
1503025335.7,286047004.2,P
1503025355.5,286047002.3,N
1503025375.3,286047001.7,N
1503025395.2,286047002.8,N
1503025415.9,286047001.4,N
1503025435.7,286047003.6,P
1503025455.6,286047001.6,N
1503025475.4,286047002.4,N
1503025495.2,286047000.6,N
1503025515.1,286046998.9,N
1503025516.0,286046998.9,N
1503025535.8,286047002.6,N
1503025555.6,286047001.7,N
1503025575.5,286047001.9,N
1503025595.3,286047000.2,N
1503025615.1,286047002.5,N
1503025635.8,286047002.0,N
1503025655.7,286047002.0,N
1503025675.5,286047000.3,N
1503025695.3,286047000.9,N
1503025715.2,286047002.0,N
1503025735.9,286046999.9,N
1503025755.7,286047000.5,N
1503025775.6,286047000.7,N
1503025795.4,286047000.0,N
1503025815.2,286047001.7,N
1503025835.1,286047003.6,N
1503025836.0,286047003.6,N
1503025855.8,286047003.1,N
1503025875.6,286047001.7,N
1503025895.4,286046999.7,N
1503025915.3,286047001.5,N
1503025935.1,286047001.8,N
1503025955.8,286047001.5,N
1503025975.7,286047000.4,N
1503025995.5,286046998.5,N
1503026015.3,286047000.7,N
1503026035.2,286047002.0,N
1503026055.9,286047001.7,N
1503026075.7,286047001.8,N
1503026095.6,286047002.7,N
1503026115.4,286047004.3,P
1503026135.2,286047002.7,N
1503026155.1,286047004.2,P
1503026156.0,286047004.2,P
1503026175.8,286046996.9,P
1503026195.6,286046998.7,N
1503026215.5,286046999.3,N
1503026235.3,286047001.1,N
1503026255.1,286047000.9,N
1503026275.9,286046999.9,N
1503026295.7,286047000.4,N
1503026315.5,286047001.4,N
1503026335.4,286047002.3,N
1503026355.2,286047004.4,N
1503026375.0,286047002.6,N
1503026375.9,286047002.6,N
1503026395.8,286047001.6,N
1503026415.6,286047001.7,N
1503026435.4,286047006.0,P
1503026455.3,286047002.6,N
1503026475.1,286047000.4,N
1503026476.0,286047000.4,N
1503026495.8,286047000.1,N
1503026515.7,286047002.8,N
1503026535.5,286047001.4,N
1503026555.3,286046999.7,N
1503026575.2,286046999.9,N
1503026595.9,286047001.8,N
1503026615.7,286047002.4,N
1503026635.5,286047000.1,N
1503026655.4,286046998.6,N
1503026675.2,286046999.0,N
1503026695.0,286047000.1,N
1503026695.9,286047000.1,N
1503026715.8,286046999.0,N
1503026735.6,286046998.2,N
1503026755.4,286047000.1,N
1503026775.3,286047002.7,N
1503026795.1,286047000.7,N
1503026796.0,286047000.7,N
1503026815.8,286046999.7,N
1503026835.7,286047002.5,N
1503026855.5,286047001.4,N
1503026875.3,286047001.6,N
1503026895.2,286047003.8,N
1503026915.9,286047002.2,N
1503026935.7,286047003.7,N
1503026955.5,286047001.5,N
1503026975.4,286047001.6,N
1503026995.2,286047003.6,N
1503027015.0,286047001.6,N
1503027015.9,286047001.6,N
1503027035.8,286047003.1,N
1503027055.6,286047001.8,N
1503027075.4,286047003.5,N
1503027095.3,286047004.1,N
1503027115.1,286047003.4,N
1503027135.8,286047003.1,N
1503027155.7,286047003.2,N
1503027175.5,286047003.7,N
1503027195.3,286047001.3,N
1503027215.2,286047002.4,N
1503027235.9,286047000.1,N
1503027255.7,286047000.9,N
1503027275.6,286047002.4,N
1503027295.4,286047000.1,N
1503027315.2,286047002.0,N
1503027335.0,286047000.4,N
1503027336.0,286047000.4,N
1503027355.8,286047002.3,N
1503027375.6,286047003.4,N
1503027395.4,286047003.4,N
1503027415.3,286047003.1,N
1503027435.1,286047005.1,P
1503027455.8,286047003.2,N
1503027475.7,286047005.5,P
1503027495.5,286047005.5,P
1503027515.4,286046998.7,N
1503027535.2,286046997.0,N
1503027555.0,286046998.9,N
1503027555.9,286046998.9,N
1503027575.7,286046999.1,N
1503027595.6,286046999.3,N
1503027615.4,286046996.9,N
1503027635.2,286046996.7,N
1503027655.1,286046997.0,N
1503027656.0,286046997.0,N
1503027675.8,286046997.3,N
1503027695.6,286046997.7,N
1503027715.5,286046996.6,N
1503027735.3,286046997.2,N
1503027755.1,286046996.5,N
1503027775.9,286046999.1,N
1503027795.7,286046998.4,N
1503027815.5,286046996.5,N
1503027835.3,286047001.1,N
1503027855.2,286047001.2,N
1503027875.0,286046999.2,N
1503027875.9,286046999.2,N
1503027895.7,286047000.4,N
1503027915.6,286047000.0,N
1503027935.4,286046998.4,N
1503027955.2,286046996.6,N
1503027975.1,286047002.7,N
1503027976.0,286047002.7,N
1503027995.8,286046998.5,N
1503028015.6,286047000.2,N
1503028035.5,286047001.0,N
1503028055.3,286047000.4,N
1503028075.1,286047000.0,N
1503028095.9,286046999.8,N
1503028115.7,286047001.4,N
1503028135.5,286047001.3,N
1503028155.4,286047002.3,N
1503028175.2,286047001.7,N
1503028195.0,286047003.2,N
1503028195.9,286047003.2,N
1503028215.7,286047004.0,N
1503028235.6,286047001.4,N
1503028255.4,286047003.6,N
1503028275.2,286047002.2,N
1503028295.1,286046999.8,N
1503028296.0,286046999.8,N
1503028315.8,286046999.8,N
1503028335.6,286046999.7,N
1503028355.5,286047000.7,N
1503028375.3,286047002.3,N
1503028395.1,286047002.3,N
1503028415.9,286047003.9,N
1503028435.7,286047006.0,P
1503028455.5,286047002.1,N
1503028475.4,286047000.4,N
1503028495.2,286047002.3,N
1503028515.0,286047004.2,N
1503028515.9,286047004.2,N
1503028535.8,286047004.0,N
1503028555.6,286047001.3,N
1503028575.4,286047003.2,N
1503028595.3,286047001.8,N
1503028615.1,286047004.3,N
1503028616.0,286047004.3,N
1503028635.8,286047004.1,N
1503028655.7,286047004.0,N
1503028675.5,286047004.2,N
1503028695.3,286047003.0,N
1503028715.1,286047003.4,N
1503028735.9,286047001.4,N
1503028755.7,286047007.5,P
1503028775.5,286047002.6,N
1503028795.4,286047000.5,N
